[[{"header":{"parameterUnit":"m.s-1","parameterCategory":1,"la1":30.2991,"la2":30.254,"lo1":-89.0895,"lo2":-89.0444,"dy":0.0017,"dx":0.0017,"nx":28,"ny":28,"refTime":"2025-04-14T21:00:00:Z","depth":0,"parameterNumber":2,"parameterNumberName":"U-component_of_WINDS"},"data":[0,0,0,0,0,0,0,0,0,0,0,0,0,0,0,0,0,0,0,0,0,0,0,0,0,0,0,0,0,0,0,0,0,0,0,0,0,0,0,0,0,0,0,0,0,0,0,0,0,0,0,0,0,0,0,0,0,0,0.3621,0.3621,0,0.3706,0.3707,0.3708,0.3676,0.3674,0.3672,0.367,0.3762,0.3766,0.3771,0,0,0,0,0,0,0,0,0,0,0,0,0,0.3437,0.344,0.362,0.3622,0.3623,0.3706,0.3707,0.3708,0.3676,0.3674,0.3671,0.3669,0.3761,0.3766,0.3771,0,0,0,0,0,0,0,0,0,0,0,0,0,0.3519,0.3441,0.362,0.3617,0.3617,0.3705,0.3707,0.3708,0.3677,0.3674,0.3671,0.3668,0.3759,0.3765,0.3772,0.387,0,0,0.3791,0.3794,0,0,0,0,0,0,0,0,0.3514,0.3526,0.3616,0.3617,0.3618,0.3677,0.3676,0.3763,0.3677,0.3654,0.367,0.3667,0.3737,0.3745,0.3767,0.3875,0.3879,0.3792,0.3796,0.3799,0.38,0,0,0,0,0,0,0,0.3509,0.3522,0.3654,0.3617,0.3619,0.3613,0.3621,0.3692,0.3711,0.3656,0.3654,0.3664,0.3737,0.3761,0.3769,0.388,0.3792,0.3798,0.3802,0.3804,0.4077,0.4081,0,0,0,0,0,0,0.3502,0.3517,0.3652,0.3657,0.3558,0.3619,0.3628,0.3661,0.371,0.3715,0.3667,0.3662,0.3752,0.3762,0.3772,0.3895,0.3799,0.3805,0.3808,0.4074,0.4078,0.4082,0,0,0,0,0,0,0.3498,0.3514,0.3648,0.3587,0.3603,0.3625,0.3662,0.3664,0.3689,0.3718,0.3722,0.3688,0.375,0.3763,0.3847,0.3897,0.3808,0.3813,0.407,0.4075,0.408,0.4138,0,0,0,0,0,0,0.3493,0.3513,0.3549,0.3588,0.3607,0.372,0.3665,0.3668,0.3699,0.3695,0.3739,0.3744,0.3749,0.3838,0.3853,0.3905,0.3818,0.4066,0.4072,0.4078,0.4132,0.4144,0.4155,0,0,0,0,0,0.3486,0.3562,0.3551,0.3567,0.3652,0.3722,0.3734,0.3736,0.3703,0.3742,0.3761,0.3742,0.3888,0.3846,0.3864,0.3918,0.4063,0.407,0.4078,0.4126,0.4142,0.4155,0,0,0,0,0,0,0.353,0.3567,0.3555,0.3645,0.3681,0.3717,0.3764,0.3752,0.3799,0.3793,0.3795,0.3806,0.3893,0.3913,0.3865,0.4018,0.3971,0.3983,0.4002,0.4017,0.4028,0.4024,0.3824,0,0,0,0,0,0.3549,0.3602,0.3632,0.3708,0.3727,0.3743,0.3773,0.3772,0.381,0.3826,0.3851,0.389,0.3945,0.3982,0.4033,0.4133,0.4145,0.418,0.4191,0.4201,0.4212,0.4271,0.4288,0.4107,0.4107,0.4107,0,0,0.3591,0.3618,0.3651,0.3718,0.3745,0.3803,0.3756,0.3817,0.386,0.3836,0.3917,0.3937,0.3981,0.4074,0.4117,0.4094,0.4264,0.4211,0.4218,0.4224,0.4281,0.4298,0.4313,0.4112,0.4111,0.411,0,0,0.3698,0.3721,0.3789,0.3818,0.386,0.3871,0.3887,0.3926,0.3938,0.4019,0.4003,0.4055,0.4149,0.4182,0.4212,0.4333,0.432,0.435,0.4413,0.447,0.4485,0.4498,0.4545,0.4562,0.436,0.436,0.436,0,0.3745,0.3828,0.3826,0.389,0.3922,0.3901,0.3972,0.4001,0.4058,0.4082,0.4055,0.4175,0.4202,0.4306,0.4336,0.4358,0.4381,0.4346,0.4482,0.4495,0.4507,0.4553,0.457,0.4364,0.4363,0.4363,0.4363,0,0.3887,0.3945,0.3995,0.4051,0.4088,0.4155,0.4167,0.4205,0.4201,0.4215,0.43,0.4333,0.4393,0.4417,0.4413,0.4521,0.4506,0.448,0.4434,0.4528,0.4572,0.4589,0.4369,0.4368,0.4367,0.4366,0,0,0.4024,0.4079,0.4098,0.4125,0.417,0.4217,0.4284,0.4342,0.4377,0.4417,0.4477,0.4558,0.4535,0.4569,0.4569,0.4619,0.4719,0.4588,0.4589,0.4615,0.4845,0.4867,0.4887,0.4709,0.4712,0.4715,0.4843,0,0.4137,0.4254,0.4256,0.4365,0.4421,0.4403,0.4462,0.4499,0.4514,0.4566,0.4583,0.4642,0.4606,0.4626,0.4675,0.4696,0.4766,0.4687,0.4769,0.4772,0.4762,0.4909,0.4932,0.5051,0.4859,0.4862,0.4864,0,0.4285,0.4331,0.4445,0.4486,0.451,0.4563,0.4618,0.4666,0.4709,0.4716,0.4755,0.4748,0.4821,0.4769,0.4872,0.4818,0.4852,0.4868,0.4873,0.4884,0.4827,0.4929,0.5089,0.5109,0.489,0.4888,0.4886,0,0.4379,0.4469,0.455,0.4573,0.4621,0.466,0.4682,0.4721,0.4757,0.4805,0.483,0.4886,0.4918,0.4964,0.4974,0.4935,0.5079,0.5027,0.5091,0.5092,0.5126,0.5124,0.5298,0.514,0.5139,0.5139,0.5139,0,0.4508,0.458,0.4594,0.4644,0.4726,0.4727,0.4809,0.4828,0.4864,0.492,0.4906,0.496,0.4968,0.5025,0.5034,0.5121,0.5134,0.5145,0.5148,0.5149,0.5149,0.5174,0.5168,0.5144,0.5143,0.5142,0.5141,0,0.4629,0.464,0.4728,0.4767,0.4778,0.4837,0.4872,0.4922,0.4935,0.5007,0.5024,0.5047,0.5113,0.5127,0.5206,0.5212,0.5316,0.5308,0.5302,0.5303,0.5369,0.5364,0.5569,0.5598,0.5416,0.5418,0.5419,0,0.4712,0.4767,0.4812,0.4848,0.4872,0.493,0.4967,0.4971,0.5011,0.5064,0.5109,0.5174,0.5226,0.5334,0.5359,0.542,0.5416,0.5484,0.5426,0.5427,0.5424,0.5422,0.543,0.5497,0.5498,0.55,0.5501,0,0.4861,0.4864,0.4916,0.4972,0.5016,0.506,0.5103,0.5134,0.5144,0.519,0.5257,0.5297,0.5378,0.5444,0.5506,0.5532,0.5521,0.5519,0.5538,0.5543,0.5539,0.5547,0.5338,0.5515,0.5514,0.5513,0.5512,0.5511,0.4969,0.5019,0.5059,0.5119,0.5151,0.5191,0.5241,0.5261,0.5317,0.5382,0.5381,0.5457,0.5501,0.5582,0.5612,0.5673,0.5652,0.5678,0.5686,0.5694,0.5703,0.5525,0.5683,0.5683,0.5683,0.5682,0.5682,0,0.5121,0.5146,0.5201,0.5261,0.5309,0.5291,0.5337,0.538,0.5445,0.5486,0.5538,0.5618,0.5683,0.5713,0.5778,0.5821,0.5818,0.5839,0.5838,0.5846,0.5715,0.5694,0.5841,0.5841,0.584,0.584,0.584,0.584,0.5207,0.5291,0.53,0.5402,0.5426,0.5499,0.5528,0.5566,0.56,0.5689,0.5742,0.576,0.5799,0.5867,0.5927,0.5935,0.5962,0.5986,0.5992,0.587,0.5854,0.5839,0.582,0.599,0.599,0.6118,0.6119,0.612]},{"header":{"parameterUnit":"m.s-1","parameterCategory":1,"la1":30.2991,"la2":30.254,"lo1":-89.0895,"lo2":-89.0444,"dy":0.0017,"dx":0.0017,"nx":28,"ny":28,"refTime":"2025-04-14T21:00:00:Z","depth":0,"parameterNumber":3,"parameterNumberName":"V-component_of_WINDS"},"data":[0,0,0,0,0,0,0,0,0,0,0,0,0,0,0,0,0,0,0,0,0,0,0,0,0,0,0,0,0,0,0,0,0,0,0,0,0,0,0,0,0,0,0,0,0,0,0,0,0,0,0,0,0,0,0,0,0,0,-4.8756,-4.8756,0,-4.8779,-4.878,-4.878,-4.8774,-4.8774,-4.8773,-4.8773,-4.8793,-4.8794,-4.8795,0,0,0,0,0,0,0,0,0,0,0,0,0,-4.8704,-4.8705,-4.8756,-4.8756,-4.8756,-4.8779,-4.878,-4.878,-4.8774,-4.8774,-4.8773,-4.8773,-4.8793,-4.8794,-4.8795,0,0,0,0,0,0,0,0,0,0,0,0,0,-4.8727,-4.8705,-4.8756,-4.8756,-4.8757,-4.8779,-4.878,-4.878,-4.8774,-4.8774,-4.8773,-4.8772,-4.8793,-4.8794,-4.8796,-4.8818,0,0,-4.88,-4.8801,0,0,0,0,0,0,0,0,-4.8725,-4.8728,-4.8756,-4.8756,-4.8757,-4.8773,-4.8769,-4.8793,-4.8774,-4.8767,-4.8773,-4.8772,-4.8787,-4.8789,-4.8795,-4.8819,-4.882,-4.88,-4.8801,-4.8802,-4.8802,0,0,0,0,0,0,0,-4.8724,-4.8727,-4.8765,-4.8756,-4.8757,-4.8755,-4.8757,-4.8773,-4.8781,-4.8768,-4.8768,-4.8771,-4.8787,-4.8793,-4.8795,-4.882,-4.88,-4.8801,-4.8802,-4.8803,-4.8866,-4.8867,0,0,0,0,0,0,-4.8722,-4.8726,-4.8764,-4.8766,-4.8739,-4.8756,-4.8759,-4.8768,-4.878,-4.8782,-4.8771,-4.877,-4.8791,-4.8793,-4.8796,-4.8824,-4.8802,-4.8803,-4.8804,-4.8866,-4.8867,-4.8867,0,0,0,0,0,0,-4.8721,-4.8726,-4.8763,-4.8746,-4.8751,-4.8758,-4.8768,-4.8769,-4.8776,-4.8783,-4.8784,-4.8776,-4.8791,-4.8794,-4.8813,-4.8825,-4.8804,-4.8805,-4.8865,-4.8866,-4.8867,-4.888,0,0,0,0,0,0,-4.872,-4.8725,-4.8734,-4.8746,-4.8752,-4.8781,-4.8769,-4.877,-4.8779,-4.8778,-4.8788,-4.8789,-4.879,-4.8811,-4.8815,-4.8826,-4.8806,-4.8864,-4.8865,-4.8867,-4.8879,-4.8882,-4.8885,0,0,0,0,0,-4.8718,-4.8736,-4.8735,-4.8739,-4.8763,-4.8781,-4.8784,-4.8787,-4.8779,-4.8788,-4.8794,-4.8789,-4.8823,-4.8813,-4.8817,-4.8829,-4.8863,-4.8865,-4.8867,-4.8878,-4.8881,-4.8885,0,0,0,0,0,0,-4.8722,-4.8737,-4.8736,-4.8758,-4.8769,-4.878,-4.8791,-4.879,-4.8802,-4.88,-4.8801,-4.8804,-4.8824,-4.8829,-4.8817,-4.8853,-4.8842,-4.8845,-4.8849,-4.8853,-4.8855,-4.8854,-4.8807,0,0,0,0,0,-4.8726,-4.8741,-4.8753,-4.8771,-4.8777,-4.8784,-4.8792,-4.8793,-4.8803,-4.8807,-4.8814,-4.8823,-4.8836,-4.8845,-4.8857,-4.888,-4.8883,-4.8891,-4.8893,-4.8896,-4.8898,-4.8912,-4.8916,-4.8874,-4.8873,-4.8873,0,0,-4.8734,-4.8744,-4.8753,-4.8773,-4.8781,-4.8796,-4.8787,-4.8803,-4.8814,-4.8809,-4.8829,-4.8834,-4.8845,-4.8867,-4.8877,-4.8871,-4.891,-4.8898,-4.89,-4.8901,-4.8914,-4.8918,-4.8922,-4.8875,-4.8875,-4.8874,0,0,-4.8755,-4.8764,-4.8782,-4.8791,-4.8805,-4.881,-4.8814,-4.8827,-4.8831,-4.8851,-4.8848,-4.8861,-4.8883,-4.8892,-4.8899,-4.8927,-4.8924,-4.8931,-4.8945,-4.8959,-4.8962,-4.8965,-4.8976,-4.898,-4.8933,-4.8933,-4.8933,0,-4.8762,-4.8786,-4.8791,-4.8808,-4.8817,-4.8816,-4.8834,-4.8842,-4.8858,-4.8865,-4.8859,-4.8889,-4.8896,-4.892,-4.8928,-4.8933,-4.8938,-4.893,-4.8962,-4.8965,-4.8968,-4.8978,-4.8982,-4.8934,-4.8934,-4.8934,-4.8934,0,-4.8795,-4.8812,-4.8824,-4.8843,-4.8853,-4.887,-4.8877,-4.8888,-4.8889,-4.8894,-4.8915,-4.8924,-4.8939,-4.8945,-4.8945,-4.8971,-4.8967,-4.8961,-4.895,-4.8972,-4.8982,-4.8986,-4.8936,-4.8935,-4.8935,-4.8935,0,0,-4.8817,-4.8841,-4.8846,-4.8855,-4.8872,-4.8884,-4.8902,-4.8919,-4.8928,-4.894,-4.8955,-4.8975,-4.8971,-4.8979,-4.8981,-4.8993,-4.9016,-4.8986,-4.8986,-4.8992,-4.9046,-4.905,-4.9054,-4.9014,-4.9015,-4.9016,-4.9045,0,-4.8841,-4.8874,-4.888,-4.8909,-4.8925,-4.8925,-4.8941,-4.8953,-4.8959,-4.8973,-4.8979,-4.8994,-4.8987,-4.8992,-4.9004,-4.9011,-4.9027,-4.9009,-4.9028,-4.9028,-4.9025,-4.9059,-4.9063,-4.909,-4.9049,-4.9049,-4.905,0,-4.8872,-4.8888,-4.8919,-4.8936,-4.8943,-4.8957,-4.8974,-4.8988,-4.9001,-4.9005,-4.9016,-4.9017,-4.9035,-4.9024,-4.905,-4.9037,-4.9046,-4.905,-4.9051,-4.9053,-4.904,-4.9062,-4.9098,-4.9103,-4.9056,-4.9055,-4.9055,0,-4.8887,-4.8916,-4.8938,-4.8946,-4.8966,-4.8977,-4.8985,-4.8999,-4.9009,-4.9024,-4.9031,-4.9046,-4.9055,-4.9067,-4.9072,-4.9063,-4.9098,-4.9087,-4.9101,-4.9101,-4.9108,-4.9107,-4.9146,-4.9113,-4.9113,-4.9113,-4.9113,0,-4.8912,-4.8931,-4.8946,-4.8959,-4.8981,-4.8988,-4.9009,-4.9017,-4.903,-4.9045,-4.9046,-4.906,-4.9066,-4.9081,-4.9085,-4.9106,-4.911,-4.9113,-4.9114,-4.9113,-4.9113,-4.9118,-4.9116,-4.9114,-4.9114,-4.9114,-4.9114,0,-4.8931,-4.8942,-4.8967,-4.8985,-4.8991,-4.9006,-4.9021,-4.9035,-4.9042,-4.9061,-4.9066,-4.9077,-4.9095,-4.9102,-4.9123,-4.9126,-4.9151,-4.915,-4.9146,-4.9147,-4.9161,-4.916,-4.9205,-4.9211,-4.9174,-4.9174,-4.9175,0,-4.8947,-4.8962,-4.8983,-4.8995,-4.9005,-4.9022,-4.9034,-4.9042,-4.9054,-4.9073,-4.9084,-4.9103,-4.9118,-4.9147,-4.9156,-4.9172,-4.9172,-4.9187,-4.9174,-4.9174,-4.9173,-4.9172,-4.9174,-4.9189,-4.9189,-4.9189,-4.919,0,-4.8973,-4.8979,-4.8996,-4.9017,-4.9032,-4.9047,-4.9062,-4.9071,-4.9082,-4.9095,-4.9115,-4.9127,-4.9151,-4.9169,-4.9187,-4.9195,-4.9194,-4.9194,-4.9198,-4.9197,-4.9195,-4.9197,-4.9153,-4.9193,-4.9192,-4.9192,-4.9192,-4.9192,-4.8991,-4.9006,-4.9024,-4.9044,-4.9058,-4.9073,-4.9087,-4.9098,-4.9115,-4.9136,-4.9139,-4.9161,-4.9176,-4.92,-4.9209,-4.9225,-4.9221,-4.9227,-4.9229,-4.923,-4.9231,-4.9193,-4.9228,-4.9228,-4.9228,-4.9228,-4.9228,0,-4.9018,-4.9031,-4.905,-4.9073,-4.909,-4.909,-4.9108,-4.9121,-4.9141,-4.9156,-4.9172,-4.9195,-4.9214,-4.9226,-4.9244,-4.9255,-4.9256,-4.926,-4.9259,-4.9261,-4.9234,-4.9228,-4.926,-4.926,-4.926,-4.926,-4.926,-4.926,-4.9034,-4.906,-4.9068,-4.91,-4.9112,-4.9135,-4.9145,-4.9159,-4.9171,-4.9198,-4.9215,-4.9223,-4.9237,-4.9257,-4.9275,-4.9278,-4.9284,-4.9289,-4.9292,-4.9266,-4.9263,-4.926,-4.9255,-4.9291,-4.9291,-4.9318,-4.9318,-4.9318]}]]